To NAV CANADA Home Page Login to a new session Search on AWWS site Feedback and Comments Disclaimer Vers la page française équivalente Tips FAQ What's new on the site To the Forecasts and Observations / NOTAM section To "File a Flight Plan" website Publications and other links Update of the User's profile FIC Telephone Numbers My Weather Data Folder Route Weather Data Regional Weather Data Local Weather Data To the Forecasts and Observations / NOTAM section
Request Generated 08/29/2015 at 12:32:17 UTC . Weather information available at that time is displayed.

METAR/TAF

KANGIRSUK/QC    

SPECI CYAS 291226Z 30010KT 15SM SCT005 BKN030 RMK ST3SC3=
METAR CYAS 291200Z 26007KT 3SM BR BKN030 07/07 A2977 RMK FG3SC2 VIS E 1/2 SLP088=

CYAS - No TAF is issued for this station

Your time UTC time
Weather data provided by Environment Canada and NAV CANADA